Showing default

HINCUBE, 39445

Orbit data source: Space-Track

HINCUBE, 39445 is a payload satellite owned by HiN Narvik (NO) in SSO that was launched on Thu, 21 Nov 2013 UTC via a DNEPR launch vehicle from the Orenburg, Russia (OREN). Payload-class satellites include a variety of spacecraft equipped with specific instruments for various scientific and technological missions. These include communications satellites like Starlink; space stations such as the ISS; scientific satellites like the Hubble; Earth observation satellites from companies like Planet Labs, Umbra, and HawkEye 360; GPS; miniature CubeSats for education and research; and military/defense satellites.

Loading next visibility...
Identifier
39445, 2013-066AF
Orbit
SSO
Country
Flag of NONO / NOR
Related business
Manufacturer
HiN Narvik
Mission
Non-operational Amateur Imaging
Bus & Motor
CUBESAT 1U, Unknown motor
Mass
1 kg wet, 1 kg dry
Launch date (UTC)
2013-11-21 (12 years ago)
Launch vehicle
DNEPR
Launch site
Orenburg, Russia (OREN)
Object type
Payload
Rocket body
Debris
Shape & HBR
Box, 0.1 m
Radar Cross Section
0.015 m², Small (<0.1 m²)

Expand to show TLE details & history
Last TLE update: 14 hours ago

TLE from 14 hours ago
0 HINCUBE
1 39445U 13066AF  25300.38591966  .00010747  00000-0  77432-3 0  9993
2 39445  97.7676 261.5641 0034422 281.7221  78.0143 15.03877294644487
Epoch: 2025-10-27T09:15Z
TLE epoch observation values (Epoch: 2025-10-27T09:15:43.458Z)
Latitude
-0.00003°
Longitude
86.64452°
Altitude
553.134 km
Speed
7.588 km/s
True Right ascension
17h 26m 15s
True Declination
0° 00' 00"
Sunlit
Object was in daylight at epoch
Visualization orbit readout
Latitude
Unknown
Longitude
Unknown
Altitude
Unknown
Speed
Unknown
Apparent Right ascension
Unknown
Apparent Declination
Unknown
Sunlit
N/A
Visualization observer readout
Local Sidereal Time
18:19:43
Azimuth
Unknown
Elevation
Unknown
Doppler factor
Unknown
Orbital elements
Apogee altitude
575.812 km
Perigee altitude
528.102 km
Semi-major axis
6,930.094 km
Eccentricity
0.00344
Inclination
97.7676°
RAAN
261.5641°
Arg. of periapsis
281.7221°
True anomaly
78.40049°
Mean anomaly
78.0143°
Eccentric anomaly
78.20736°
Mean motion
3.76214 °/min
Orbital period
95.69 mins
BSTAR
0.00077432
Loading maneuver chart data...
Computing Atmospheric mass density...
Loading historical data...
Loading historical data...
Loading historical data...
Loading historical data...
Loading historical data...
Loading historical data...
Loading historical data...

Documentation

Showing up to 5 results
|